H1 CPF 2 NER 2025 12 14 9 348 01 glonass139 H2 1808601 9139 43687 2025 12 14 0 0 0 2025 12 17 23 45 0 900 1 1 0 0 0 1 H9 10 0 61023 0.00000 0 844330.805 -19644650.805 16255515.976 10 0 61023 900.00000 0 1512102.301 -21377617.340 13838463.208 10 0 61023 1800.00000 0 1945701.775 -22859273.924 11152685.645 10 0 61023 2700.00000 0 2174964.197 -24038263.438 8250288.518 10 0 61023 3600.00000 0 2238969.119 -24872332.962 5187610.216 10 0 61023 4500.00000 0 2184140.503 -25330071.833 2024130.092 10 0 61023 5400.00000 0 2062034.462 -25392215.409 -1178687.442 10 0 61023 6300.00000 0 1926909.000 -25052459.066 -4358589.920 10 0 61023 7200.00000 0 1833179.288 -24317747.448 -7453751.125 10 0 61023 8100.00000 0 1832867.086 -23208026.141 -10403978.478 10 0 61023 9000.00000 0 1973153.299 -21755465.630 -13151889.314 10 0 61023 9900.00000 0 2294138.390 -20003189.797 -15644032.423 10 0 61023 10800.00000 0 2826906.546 -18003562.125 -17831932.441 10 0 61023 11700.00000 0 3591976.603 -15816101.444 -19673036.358 10 0 61023 12600.00000 0 4598206.280 -13505114.624 -21131543.455 10 0 61023 13500.00000 0 5842197.035 -11137145.362 -22179102.498 10 0 61023 14400.00000 0 7308225.628 -8778345.725 -22795362.787 10 0 61023 15300.00000 0 8968706.220 -6491880.178 -22968368.535 10 0 61023 16200.00000 0 10785164.469 -4335470.152 -22694789.259 10 0 61023 17100.00000 0 12709683.547 -2359181.083 -21979981.948 10 0 61023 18000.00000 0 14686762.090 -603543.529 -20837884.071 10 0 61023 18900.00000 0 16655506.862 901914.208 -19290739.620 10 0 61023 19800.00000 0 18552068.737 2139661.877 -17368663.627 10 0 61023 20700.00000 0 20312220.300 3104651.226 -15109053.625 10 0 61023 21600.00000 0 21873967.374 3804269.356 -12555859.494 10 0 61023 22500.00000 0 23180085.199 4257765.042 -9758725.956 10 0 61023 23400.00000 0 24180473.030 4495173.715 -6772024.451 10 0 61023 24300.00000 0 24834228.515 4555787.886 -3653793.470 10 0 61023 25200.00000 0 25111354.923 4486238.936 -464608.159 10 0 61023 26100.00000 0 24994029.717 4338272.462 2733598.417 10 0 61023 27000.00000 0 24477381.445 4166312.238 5878739.105 10 0 61023 27900.00000 0 23569742.625 4024916.568 8909777.900 10 0 61023 28800.00000 0 22292368.291 3966235.201 11767912.928 10 0 61023 29700.00000 0 20678632.287 4037574.680 14397714.187 10 0 61023 30600.00000 0 18772735.151 4279175.227 16748194.183 10 0 61023 31500.00000 0 16627977.721 4722293.162 18773791.014 10 0 61023 32400.00000 0 14304672.443 5387669.811 20435245.493 10 0 61023 33300.00000 0 11867779.145 6284451.619 21700356.019 10 0 61023 34200.00000 0 9384363.259 7409607.227 22544597.341 10 0 61023 35100.00000 0 6920981.406 8747866.575 22951591.984 10 0 61023 36000.00000 0 4541102.107 10272185.457 22913425.801 10 0 61023 36900.00000 0 2302667.686 11944717.123 22430801.880 10 0 61023 37800.00000 0 255897.536 13718251.552 21513029.921 10 0 61023 38700.00000 0 -1558577.092 15538063.611 20177851.017 10 0 61023 39600.00000 0 -3111170.252 17344094.186 18451100.717 10 0 61023 40500.00000 0 -4384330.635 19073374.373 16366216.118 10 0 61023 41400.00000 0 -5373022.650 20662592.388 13963595.618 10 0 61023 42300.00000 0 -6084679.767 22050696.462 11289822.818 10 0 61023 43200.00000 0 -6538632.661 23181425.073 8396768.760 10 0 61023 44100.00000 0 -6765036.655 24005658.391 5340589.242 10 0 61023 45000.00000 0 -6803344.049 24483491.869 2180636.286 10 0 61023 45900.00000 0 -6700386.239 24585944.224 -1021695.192 10 0 61023 46800.00000 0 -6508147.182 24296227.132 -4204162.943 10 0 61023 47700.00000 0 -6281323.022 23610522.297 -7304891.429 10 0 61023 48600.00000 0 -6074771.919 22538232.245 -10263580.140 10 0 61023 49500.00000 0 -5940962.938 21101693.428 -13022681.961 10 0 61023 50400.00000 0 -5927532.955 19335362.961 -15528527.945 10 0 61023 51300.00000 0 -6075055.965 17284512.614 -17732375.991 10 0 61023 52200.00000 0 -6415120.132 15003484.419 -19591362.617 10 0 61023 53100.00000 0 -6968794.807 12553580.761 -21069339.011 10 0 61023 54000.00000 0 -7745553.096 10000677.066 -22137575.070 10 0 61023 54900.00000 0 -8742696.260 7412656.690 -22775317.868 10 0 61023 55800.00000 0 -9945304.919 4856774.906 -22970193.886 10 0 61023 56700.00000 0 -11326719.793 2397061.622 -22718447.521 10 0 61023 57600.00000 0 -12849532.381 91870.592 -22025011.507 10 0 61023 58500.00000 0 -14467044.492 -2008323.401 -20903408.128 10 0 61023 59400.00000 0 -16125135.792 -3862788.470 -19375483.326 10 0 61023 60300.00000 0 -17764461.389 -5441984.026 -17470978.913 10 0 61023 61200.00000 0 -19322887.459 -6728534.495 -15226951.292 10 0 61023 62100.00000 0 -20738062.883 -7717689.095 -12687047.947 10 0 61023 63000.00000 0 -21950019.018 -8417250.020 -9900655.806 10 0 61023 63900.00000 0 -22903688.402 -8846973.682 -6921938.163 10 0 61023 64800.00000 0 -23551236.560 -9037471.803 -3808779.039 10 0 61023 65700.00000 0 -23854108.864 -9028660.175 -621655.776 10 0 61023 66600.00000 0 -23784706.354 -8867821.924 2577537.835 10 0 61023 67500.00000 0 -23327620.117 -8607368.191 5726694.687 10 0 61023 68400.00000 0 -22480372.361 -8302391.864 8764700.037 10 0 61023 69300.00000 0 -21253633.149 -8008118.406 11632616.096 10 0 61023 70200.00000 0 -19670903.723 -7777362.006 14274822.481 10 0 61023 71100.00000 0 -17767679.678 -7658094.716 16640090.591 10 0 61023 72000.00000 0 -15590128.882 -7691231.293 18682571.415 10 0 61023 72900.00000 0 -13193339.110 -7908723.089 20362678.220 10 0 61023 73800.00000 0 -10639207.970 -8332041.296 21647847.778 10 0 61023 74700.00000 0 -7994062.392 -8971113.370 22513166.089 10 0 61023 75600.00000 0 -5326105.784 -9823757.572 22941847.292 10 0 61023 76500.00000 0 -2702797.884 -10875639.812 22925557.053 10 0 61023 77400.00000 0 -188274.958 -12100755.282 22464574.542 10 0 61023 78300.00000 0 2159083.762 -13462415.647 21567789.942 10 0 61023 79200.00000 0 4288843.610 -14914701.559 20252537.303 10 0 61023 80100.00000 0 6160366.146 -16404320.846 18544265.446 10 0 61023 81000.00000 0 7744248.970 -17872795.720 16476052.531 10 0 61023 81900.00000 0 9023294.556 -19258888.423 14087972.788 10 0 61023 82800.00000 0 9992968.380 -20501164.340 11426326.743 10 0 61023 83700.00000 0 10661327.757 -21540585.513 8542749.029 10 0 61023 84600.00000 0 11048424.926 -22323025.732 5493210.388 10 0 61023 85500.00000 0 11185209.895 -22801601.154 2336932.854 10 0 61024 0.00000 0 11111979.757 -22938717.812 -864760.663 10 0 61024 900.00000 0 10876440.337 -22707748.956 -4049641.579 10 0 61024 1800.00000 0 10531462.792 -22094270.389 -7155787.634 10 0 61024 2700.00000 0 10132630.587 -21096800.920 -10122793.232 10 0 61024 3600.00000 0 9735681.468 -19727015.352 -12892949.577 10 0 61024 4500.00000 0 9393953.516 -18009420.147 -15412372.622 10 0 61024 5400.00000 0 9155944.210 -15980504.492 -17632055.994 10 0 61024 6300.00000 0 9063086.539 -13687401.647 -19508827.963 10 0 61024 7200.00000 0 9147836.955 -11186116.144 -21006193.554 10 0 61024 8100.00000 0 9432156.583 -8539390.566 -22095045.371 10 0 61024 9000.00000 0 9926450.339 -5814300.700 -22754229.437 10 0 61024 9900.00000 0 10629009.205 -3079679.089 -22970955.259 10 0 61024 10800.00000 0 11525979.515 -403474.015 -22741042.453 10 0 61024 11700.00000 0 12591860.920 2149846.567 -22068999.441 10 0 61024 12600.00000 0 13790512.343 4521738.618 -20967932.889 10 0 61024 13500.00000 0 15076623.858 6661772.149 -19459289.886 10 0 61024 14400.00000 0 16397592.803 8529477.654 -17572437.886 10 0 61024 15300.00000 0 17695725.335 10095772.926 -15344090.672 10 0 61024 16200.00000 0 18910670.909 11343912.050 -12817591.484 10 0 61024 17100.00000 0 19981987.271 12269918.345 -10042067.271 10 0 61024 18000.00000 0 20851727.939 12882484.695 -7071470.656 10 0 61024 18900.00000 0 21466943.122 13202347.042 -3963528.379 10 0 61024 19800.00000 0 21781988.674 13261159.023 -778616.951 10 0 61024 20700.00000 0 21760545.657 13099916.585 2421412.276 10 0 61024 21600.00000 0 21377265.388 12767000.368 5574435.413 10 0 61024 22500.00000 0 20618970.589 12315919.547 8619262.095 10 0 61024 23400.00000 0 19485361.996 11802853.262 11496821.569 10 0 61024 24300.00000 0 17989200.621 11284093.991 14151305.809 10 0 61024 25200.00000 0 16155957.766 10813501.115 16531247.587 10 0 61024 26100.00000 0 14022947.169 10440072.133 18590512.988 10 0 61024 27000.00000 0 11637975.100 10205733.815 20289189.665 10 0 61024 27900.00000 0 9057564.117 10143446.084 21594354.382 10 0 61024 28800.00000 0 6344823.706 10275698.167 22480705.704 10 0 61024 29700.00000 0 3567055.404 10613460.083 22931050.349 10 0 61024 30600.00000 0 793190.741 11155633.529 22936634.379 10 0 61024 31500.00000 0 -1908832.819 11889025.443 22497313.203 10 0 61024 32400.00000 0 -4474650.357 12788845.856 21621557.192 10 0 61024 33300.00000 0 -6845896.694 13819709.886 20326292.575 10 0 61024 34200.00000 0 -8972382.628 14937102.742 18636580.195 10 0 61024 35100.00000 0 -10813930.854 16089247.251 16585137.592 10 0 61024 36000.00000 0 -12341796.034 17219296.466 14211712.755 10 0 61024 36900.00000 0 -13539610.503 18267760.038 11562320.769 10 0 61024 37800.00000 0 -14403816.661 19175062.888 8688357.257 10 0 61024 38700.00000 0 -14943568.466 19884128.742 5645605.161 10 0 61024 39600.00000 0 -15180106.497 20342879.557 2493153.678 10 0 61024 40500.00000 0 -15145633.323 20506545.016 -707749.747 10 0 61024 41400.00000 0 -14881736.958 20339683.877 -3894891.943 10 0 61024 42300.00000 0 -14437429.455 19817830.876 -7006307.372 10 0 61024 43200.00000 0 -13866884.081 18928698.486 -9981488.147 10 0 61024 44100.00000 0 -13226967.392 17672881.629 -12762566.457 10 0 61024 45000.00000 0 -12574671.297 16064034.368 -15295445.638 10 0 61024 45900.00000 0 -11964554.442 14128510.019 -17530857.289 10 0 61024 46800.00000 0 -11446301.742 11904478.731 -19425323.406 10 0 61024 47700.00000 0 -11062505.806 9440558.714 -20942004.530 10 0 61024 48600.00000 0 -10846764.397 6794017.662 -22051417.337 10 0 61024 49500.00000 0 -10822174.584 4028618.987 -22732007.850 10 0 61024 50400.00000 0 -11000287.281 1212202.237 -22970569.311 10 0 61024 51300.00000 0 -11380566.356 -1585901.902 -22762496.908 10 0 61024 52200.00000 0 -11950375.107 -4297514.892 -22111874.699 10 0 61024 53100.00000 0 -12685490.638 -6858202.404 -21031393.292 10 0 61024 54000.00000 0 -13551124.396 -9209707.953 -19542100.054 10 0 61024 54900.00000 0 -14503405.835 -11302127.621 -17672986.809 10 0 61024 55800.00000 0 -15491266.567 -13095736.150 -15460423.078 10 0 61024 56700.00000 0 -16458645.543 -14562389.402 -12947445.897 10 0 61024 57600.00000 0 -17346922.161 -15686445.851 -10182920.029 10 0 61024 58500.00000 0 -18097474.541 -16465169.953 -7220585.021 10 0 61024 59400.00000 0 -18654254.876 -16908601.969 -4118007.799 10 0 61024 60300.00000 0 -18966273.007 -17038901.232 -935461.400 10 0 61024 61200.00000 0 -18989883.199 -16889191.961 2265247.962 10 0 61024 62100.00000 0 -18690777.463 -16501961.565 5421982.389 10 0 61024 63000.00000 0 -18045601.150 -15927080.186 8473478.683 10 0 61024 63900.00000 0 -17043122.529 -15219525.901 11360535.928 10 0 61024 64800.00000 0 -15684906.864 -14436912.255 14027161.180 10 0 61024 65700.00000 0 -13985466.326 -13636922.741 16421651.201 10 0 61024 66600.00000 0 -11971879.011 -12874760.478 18497589.570 10 0 61024 67500.00000 0 -9682892.425 -12200720.328 20214740.456 10 0 61024 68400.00000 0 -7167548.116 -11657985.313 21539822.411 10 0 61024 69300.00000 0 -4483383.904 -11280739.503 22447147.982 10 0 61024 70200.00000 0 -1694287.441 -11092676.232 22919117.489 10 0 61024 71100.00000 0 1131910.938 -11105963.884 22946558.028 10 0 61024 72000.00000 0 3926007.406 -11320712.465 22528901.509 10 0 61024 72900.00000 0 6620050.642 -11724963.347 21674198.399 10 0 61024 73800.00000 0 9149917.015 -12295202.903 20398966.692 10 0 61024 74700.00000 0 11457729.233 -12997378.942 18727878.519 10 0 61024 75600.00000 0 13494019.076 -13788377.922 16693289.741 10 0 61024 76500.00000 0 15219545.123 -14617901.583 14334620.715 10 0 61024 77400.00000 0 16606690.397 -15430664.735 11697599.328 10 0 61024 78300.00000 0 17640382.102 -16168822.201 8833380.084 10 0 61024 79200.00000 0 18318495.366 -16774522.919 5797555.645 10 0 61024 80100.00000 0 18651724.336 -17192483.447 2649079.587 10 0 61024 81000.00000 0 18662926.318 -17372471.875 -550878.860 10 0 61024 81900.00000 0 18385966.866 -17271596.541 -3740125.694 10 0 61024 82800.00000 0 17864114.845 -16856301.898 -6856655.050 10 0 61024 83700.00000 0 17148055.639 -16103986.047 -9839859.941 10 0 61024 84600.00000 0 16293606.946 -15004170.291 -12631716.608 10 0 61024 85500.00000 0 15359234.220 -13559170.031 -15177918.651 10 0 61025 0.00000 0 14403471.461 -11784237.547 -17428938.097 10 0 61025 900.00000 0 13482356.306 -9707168.366 -19340993.444 10 0 61025 1800.00000 0 12646989.507 -7367389.093 -20876902.569 10 0 61025 2700.00000 0 11941320.388 -4814560.772 -22006807.894 10 0 61025 3600.00000 0 11400253.132 -2106757.647 -22708756.708 10 0 61025 4500.00000 0 11048153.218 691704.158 -22969126.828 10 0 61025 5400.00000 0 10897816.823 3512698.002 -22782889.424 10 0 61025 6300.00000 0 10949946.359 6286877.397 -22153704.186 10 0 61025 7200.00000 0 11193153.807 8946318.666 -21093845.236 10 0 61025 8100.00000 0 11604491.309 11427106.212 -19623959.417 10 0 61025 9000.00000 0 12150486.232 13671753.448 -17772661.754 10 0 61025 9900.00000 0 12788636.626 15631359.285 -15575975.980 10 0 61025 10800.00000 0 13469303.619 17267411.165 -13076631.055 10 0 61025 11700.00000 0 14137920.527 18553160.429 -10323227.341 10 0 61025 12600.00000 0 14737425.035 19474513.605 -7369288.789 10 0 61025 13500.00000 0 15210811.418 20030403.623 -4272219.706 10 0 61025 14400.00000 0 15503694.609 20232626.722 -1092186.659 10 0 61025 15300.00000 0 15566777.518 20105153.243 2109052.412 10 0 61025 16200.00000 0 15358117.037 19682942.659 5269348.754 10 0 61025 17100.00000 0 14845092.796 19010313.861 8327369.428 10 0 61025 18000.00000 0 14005995.287 18138940.400 11223786.292 10 0 61025 18900.00000 0 12831166.113 17125555.848 13902424.224 10 0 61025 19800.00000 0 11323641.959 16029466.396 16311346.464 10 0 61025 20700.00000 0 9499274.725 14909975.573 18403856.328 10 0 61025 21600.00000 0 7386322.125 13823829.283 20139396.450 10 0 61025 22500.00000 0 5024525.022 12822788.158 21484328.852 10 0 61025 23400.00000 0 2463709.048 11951428.646 22412581.431 10 0 61025 24300.00000 0 -238032.417 11245264.426 22906149.149 10 0 61025 25200.00000 0 -3016499.640 10729266.276 22955440.799 10 0 61025 26100.00000 0 -5803803.871 10416841.866 22559465.048 10 0 61025 27000.00000 0 -8530941.677 10309317.836 21725852.264 10 0 61025 27900.00000 0 -11130420.862 10395945.660 20470711.527 10 0 61025 28800.00000 0 -13538830.164 10654431.086 18818325.092 10 0 61025 29700.00000 0 -15699247.091 11051965.151 16800685.519 10 0 61025 30600.00000 0 -17563384.663 11546713.818 14456883.501 10 0 61025 31500.00000 0 -19093388.246 12089703.989 11832357.357 10 0 61025 32400.00000 0 -20263207.970 12627026.835 8978017.856 10 0 61025 33300.00000 0 -21059489.614 13102265.767 5949264.607 10 0 61025 34200.00000 0 -21481946.766 13459046.548 2804912.707 10 0 61025 35100.00000 0 -21543198.722 13643601.524 -393949.718 10 0 61025 36000.00000 0 -21268081.063 13607238.951 -3585150.721 10 0 61025 36900.00000 0 -20692458.042 13308612.156 -6706646.957 10 0 61025 37800.00000 0 -19861587.153 12715691.388 -9697735.131 10 0 61025 38700.00000 0 -18828105.159 11807353.761 -12500238.220 10 0 61025 39600.00000 0 -17649721.068 10574522.694 -15059642.622 10 0 61025 40500.00000 0 -16386713.854 9020807.378 -17326163.488 10 0 61025 41400.00000 0 -15099340.947 7162613.906 -19255717.037 10 0 61025 42300.00000 0 -13845267.204 5028722.112 -20810780.632 10 0 61025 43200.00000 0 -12677122.922 2659344.679 -21961123.792 10 0 61025 44100.00000 0 -11640293.834 104706.878 -22684396.041 10 0 61025 45000.00000 0 -10771035.988 -2576794.570 -22966560.349 10 0 61025 45900.00000 0 -10094994.504 -5320777.402 -22802164.048 10 0 61025 46800.00000 0 -9626187.996 -8059314.038 -22194442.237 10 0 61025 47700.00000 0 -9366500.751 -10723525.044 -21155251.949 10 0 61025 48600.00000 0 -9305703.270 -13246218.362 -19704838.527 10 0 61025 49500.00000 0 -9421999.529 -15564465.029 -17871438.870 10 0 61025 50400.00000 0 -9683077.090 -17622004.604 -15690729.299 10 0 61025 51300.00000 0 -10047615.039 -19371380.738 -13205128.829 10 0 61025 52200.00000 0 -10467185.414 -20775718.504 -10462971.372 10 0 61025 53100.00000 0 -10888467.176 -21810070.074 -7517563.100 10 0 61025 54000.00000 0 -11255678.585 -22462273.429 -4426143.450 10 0 61025 54900.00000 0 -11513124.652 -22733289.239 -1248770.206 10 0 61025 55800.00000 0 -11607751.453 -22637002.864 1952849.311 10 0 61025 56700.00000 0 -11491598.924 -22199501.020 5116557.884 10 0 61025 57600.00000 0 -11124048.066 -21457854.608 8180955.262 10 0 61025 58500.00000 0 -10473767.295 -20458459.883 11086588.540 10 0 61025 59400.00000 0 -9520275.478 -19255008.530 13777102.882 10 0 61025 60300.00000 0 -8255055.332 -17906172.550 16200330.422 10 0 61025 61200.00000 0 -6682169.881 -16473101.510 18309296.510 10 0 61025 62100.00000 0 -4818355.414 -15016837.211 20063124.391 10 0 61025 63000.00000 0 -2692586.219 -13595753.906 21427821.440 10 0 61025 63900.00000 0 -345128.282 -12263130.818 22376932.530 10 0 61025 64800.00000 0 2173879.766 -11064957.879 22892048.567 10 0 61025 65700.00000 0 4806260.710 -10038065.725 22963161.025 10 0 61025 66600.00000 0 7487972.949 -9208657.348 22588855.975 10 0 61025 67500.00000 0 10151535.987 -8591302.120 21776344.015 10 0 61025 68400.00000 0 12728607.918 -8188433.702 20541325.322 10 0 61025 69300.00000 0 15152609.118 -7990372.475 18907691.968 10 0 61025 70200.00000 0 17361284.272 -7975871.354 16907072.566 10 0 61025 71100.00000 0 19299097.040 -8113162.063 14578227.144 10 0 61025 72000.00000 0 20919358.207 -8361457.971 11966303.067 10 0 61025 72900.00000 0 22185998.942 -8672850.369 9121965.568 10 0 61025 73800.00000 0 23074915.162 -8994518.305 6100418.987 10 0 61025 74700.00000 0 23574826.719 -9271158.636 2960337.323 10 0 61025 75600.00000 0 23687615.245 -9447533.310 -237275.353 10 0 61025 76500.00000 0 23428126.346 -9471025.636 -3430272.355 10 0 61025 77400.00000 0 22823444.371 -9294096.565 -6556576.200 10 0 61025 78300.00000 0 21911670.327 -8876535.998 -9555390.643 10 0 61025 79200.00000 0 20740254.523 -8187412.673 -12368388.667 10 0 61025 80100.00000 0 19363954.498 -7206638.801 -14940852.560 10 0 61025 81000.00000 0 17842504.583 -5926081.955 -17222743.261 10 0 61025 81900.00000 0 16238095.621 -4350175.870 -19169677.697 10 0 61025 82800.00000 0 14612771.294 -2496003.047 -20743794.764 10 0 61025 83700.00000 0 13025850.788 -392844.396 -21914493.012 10 0 61025 84600.00000 0 11531486.209 1918786.387 -22659025.767 10 0 61025 85500.00000 0 10176457.237 4388584.285 -22962942.327 10 0 61026 0.00000 0 8998295.330 6958310.682 -22820366.981 10 0 61026 900.00000 0 8023815.041 9563991.932 -22234110.555 10 0 61026 1800.00000 0 7268114.824 12138364.272 -21215612.892 10 0 61026 2700.00000 0 6734086.256 14613468.278 -19784717.314 10 0 61026 3600.00000 0 6412452.831 16923281.840 -17969281.649 10 0 61026 4500.00000 0 6282334.906 19006283.694 -15804633.456 10 0 61026 5400.00000 0 6312316.044 20807840.857 -13332880.044 10 0 61026 6300.00000 0 6461964.687 22282320.804 -10602086.733 10 0 61026 7200.00000 0 6683746.002 23394840.721 -7665339.422 10 0 61026 8100.00000 0 6925242.230 24122581.317 -4579709.869 10 0 61026 9000.00000 0 7131586.923 24455610.984 -1405144.025 10 0 61026 9900.00000 0 7248009.422 24397186.596 1796704.621 10 0 61026 10800.00000 0 7222381.401 23963519.266 4963673.661 10 0 61026 11700.00000 0 7007657.296 23183015.842 8034298.778 10 0 61026 12600.00000 0 6564105.041 22095028.864 10949005.424 10 0 61026 13500.00000 0 5861232.527 20748168.246 13651261.988 10 0 61026 14400.00000 0 4879328.132 19198246.089 16088672.201 10 0 61026 15300.00000 0 3610549.978 17505941.190 18213985.902 10 0 61026 16200.00000 0 2059517.531 15734281.150 19986009.102 10 0 61026 17100.00000 0 243379.991 13946047.282 21370396.420 10 0 61026 18000.00000 0 -1808642.350 12201210.348 22340311.253 10 0 61026 18900.00000 0 -4056225.724 10554503.611 22876941.673 10 0 61026 19800.00000 0 -6449380.458 9053233.621 22969862.667 10 0 61026 20700.00000 0 -8930300.002 7735419.254 22617238.120 10 0 61026 21600.00000 0 -11435546.001 6628335.706 21825858.799 10 0 61026 22500.00000 0 -13898480.012 5747523.411 20611015.415 10 0 61026 23400.00000 0 -16251842.099 5096302.585 18996208.785 10 0 61026 24300.00000 0 -18430370.227 4665813.160 17012701.996 10 0 61026 25200.00000 0 -20373352.381 4435578.061 14698922.367 10 0 61026 26100.00000 0 -22027005.620 4374565.943 12099723.880 10 0 61026 27000.00000 0 -23346583.172 4442708.575 9265523.479 10 0 61026 27900.00000 0 -24298121.546 4592808.816 6251327.282 10 0 61026 28800.00000 0 -24859754.327 4772758.524 3115665.108 10 0 61026 29700.00000 0 -25022537.298 4927972.366 -80546.154 10 0 61026 30600.00000 0 -24790749.843 5003934.102 -3275188.196 10 0 61026 31500.00000 0 -24181659.599 4948746.856 -6406152.463 10 0 61026 32400.00000 0 -23224760.008 4715578.465 -9412552.743 10 0 61026 33300.00000 0 -21960512.687 4264897.270 -12235914.890 10 0 61026 34200.00000 0 -20438647.581 3566402.474 -14821319.772 10 0 61026 35100.00000 0 -18716092.550 2600566.114 -17118476.568 10 0 61026 36000.00000 0 -16854619.682 1359720.142 -19082705.053 10 0 61026 36900.00000 0 -14918307.502 -151358.581 -20675807.408 10 0 61026 37800.00000 0 -12970925.825 -1915391.297 -21866812.505 10 0 61026 38700.00000 0 -11073353.025 -3903072.002 -22632578.292 10 0 61026 39600.00000 0 -9281133.888 -6074054.897 -22958240.721 10 0 61026 40500.00000 0 -7642280.035 -8378414.261 -22837500.815 10 0 61026 41400.00000 0 -6195404.423 -10758516.529 -22272744.575 10 0 61026 42300.00000 0 -4968267.277 -13151227.041 -21274993.662 10 0 61026 43200.00000 0 -3976793.324 -15490359.907 -19863688.015 10 0 61026 44100.00000 0 -3224600.313 -17709269.233 -18066304.735 10 0 61026 45000.00000 0 -2703057.301 -19743473.905 -15917820.721 10 0 61026 45900.00000 0 -2391868.892 -21533206.700 -13460029.517 10 0 61026 46800.00000 0 -2260159.451 -23025781.557 -10740725.674 10 0 61026 47700.00000 0 -2268010.314 -24177680.342 -7812772.591 10 0 61026 48600.00000 0 -2368383.946 -24956272.196 -4733072.118 10 0 61026 49500.00000 0 -2509352.674 -25341093.913 -1561456.154 10 0 61026 50400.00000 0 -2636536.881 -25324638.236 1640477.831 10 0 61026 51300.00000 0 -2695648.772 -24912617.640 4810564.401 10 0 61026 52200.00000 0 -2635033.480 -24123693.216 7887277.317 10 0 61026 53100.00000 0 -2408099.570 -22988680.697 10810922.526 10 0 61026 54000.00000 0 -1975535.835 -21549267.581 13524793.748 10 0 61026 54900.00000 0 -1307220.422 -19856295.584 15976268.373 10 0 61026 55800.00000 0 -383741.450 -17967680.688 18117822.689 10 0 61026 56700.00000 0 802535.348 -15946057.906 19907947.299 10 0 61026 57600.00000 0 2246897.407 -13856248.979 21311945.690 10 0 61026 58500.00000 0 3932239.158 -11762658.307 22302601.191 10 0 61026 59400.00000 0 5829541.825 -9726705.040 22860700.176 10 0 61026 60300.00000 0 7898860.319 -7804397.456 22975402.010 10 0 61026 61200.00000 0 10090777.356 -6044149.705 22644448.987 10 0 61026 62100.00000 0 12348265.658 -4484930.812 21874212.366 10 0 61026 63000.00000 0 14608882.124 -3154822.041 20679573.450 10 0 61026 63900.00000 0 16807203.960 -2070041.873 19083641.589 10 0 61026 64800.00000 0 18877406.555 -1234478.512 17117313.861 10 0 61026 65700.00000 0 20755876.637 -639748.802 14818684.097 10 0 61026 66600.00000 0 22383752.357 -265780.610 12232311.778 10 0 61026 67500.00000 0 23709284.577 -81893.842 9408364.107 10 0 61026 68400.00000 0 24689920.633 -48334.268 6401647.132 10 0 61026 69300.00000 0 25294023.036 -118195.236 3270544.284 10 0 61026 70200.00000 0 25502150.592 -239645.729 75882.705 10 0 61026 71100.00000 0 25307847.544 -358370.105 -3120250.509 10 0 61026 72000.00000 0 24717906.981 -420115.583 -6255718.761 10 0 61026 72900.00000 0 23752096.833 -373238.816 -9269548.981 10 0 61026 73800.00000 0 22442359.568 -171142.698 -12103122.977 10 0 61026 74700.00000 0 20831518.890 225500.902 -14701323.162 10 0 61026 75600.00000 0 18971547.734 846837.709 -17013609.745 10 0 61026 76500.00000 0 16921470.224 1712309.084 -18995007.911 10 0 61026 77400.00000 0 14744985.787 2829587.022 -20606985.449 10 0 61026 78300.00000 0 12507915.093 4194012.226 -21818203.635 10 0 61026 79200.00000 0 10275574.827 5788560.064 -22605126.837 10 0 61026 80100.00000 0 8110191.070 7584336.859 -22952479.164 10 0 61026 81000.00000 0 6068459.145 9541586.659 -22853539.568 10 0 61026 81900.00000 0 4199351.407 11611167.099 -22310269.985 10 0 61026 82800.00000 0 2542263.848 13736433.277 -21333274.253 10 0 61026 83700.00000 0 1125577.981 15855451.399 -19941588.850 10 0 61026 84600.00000 0 -34303.056 17903450.111 -18162309.615 10 0 61026 85500.00000 0 -933405.187 19815407.322 -16030061.787 99